WAT2286 LHBP-LFRB

Flight info

Callsign WAT2286
Flight time 2h 44m
Altitude 34000
Route GILEP DCT ZOLKU DCT ARSIN DCT ERKIR DCT KPT DCT ROTSI DCT RESMI DCT UPALO/N0448F350 DCT FEJAC DCT BADUR DCT ANLEV
Aircraft A321/M-SDE3FGHIRWY/LB1

Departure

Time 2026-04-20 18:56
Airport Budapest Liszt Ferenc International Airport (LHBP)

Arrival

Time 2026-04-20 21:40
Airport Brest Bretagne airport (LFRB)
Time Latitude Longitude Altitude Speed Heading
2026-04-20 18:05 47.43365 19.25843 463 ft 0 kts 222°
2026-04-20 18:45 47.43371 19.25851 463 ft 4 kts 223°
2026-04-20 18:45 47.43390 19.25880 460 ft 4 kts 231°
2026-04-20 18:46 47.43405 19.25913 460 ft 5 kts 246°
2026-04-20 18:46 47.43409 19.25948 459 ft 5 kts 288°
2026-04-20 18:46 47.43405 19.25961 460 ft 1 kts 312°
2026-04-20 18:51 47.43406 19.25959 460 ft 2 kts 312°
2026-04-20 18:51 47.43427 19.25926 461 ft 7 kts 312°
2026-04-20 18:52 47.43475 19.25847 463 ft 13 kts 311°
2026-04-20 18:52 47.43541 19.25723 463 ft 17 kts 288°
2026-04-20 18:52 47.43481 19.25573 461 ft 20 kts 221°
2026-04-20 18:52 47.43386 19.25443 463 ft 14 kts 223°
2026-04-20 18:53 47.43306 19.25334 462 ft 18 kts 222°
2026-04-20 18:53 47.43204 19.25196 463 ft 22 kts 222°
2026-04-20 18:53 47.43150 19.25124 463 ft 0 kts 221°
2026-04-20 18:54 47.43130 19.25099 463 ft 8 kts 221°
2026-04-20 18:54 47.43078 19.25028 462 ft 13 kts 245°
2026-04-20 18:54 47.43126 19.24902 462 ft 15 kts 312°
2026-04-20 18:54 47.43129 19.24897 462 ft 0 kts 312°
2026-04-20 18:55 47.43189 19.24799 461 ft 41 kts 312°
2026-04-20 18:55 47.43529 19.24247 457 ft 103 kts 312°
2026-04-20 18:55 47.44135 19.23271 458 ft 153 kts 313°
2026-04-20 18:56 47.44913 19.22059 848 ft 159 kts 313°
2026-04-20 18:56 47.45666 19.20820 1413 ft 166 kts 310°
2026-04-20 18:56 47.46424 19.19534 1994 ft 170 kts 312°
2026-04-20 18:56 47.47251 19.18192 2380 ft 183 kts 313°
2026-04-20 18:57 47.48141 19.16759 2777 ft 196 kts 311°
2026-04-20 18:57 47.48828 19.14925 3066 ft 218 kts 285°
2026-04-20 18:57 47.48795 19.12589 3371 ft 241 kts 258°
2026-04-20 18:57 47.48198 19.10188 3809 ft 256 kts 248°
2026-04-20 18:58 47.47097 19.08074 4404 ft 269 kts 218°
2026-04-20 18:58 47.45429 19.06776 5097 ft 274 kts 206°
2026-04-20 18:58 47.43671 19.05658 5799 ft 276 kts 206°
2026-04-20 18:58 47.41904 19.04502 6535 ft 278 kts 207°
2026-04-20 18:59 47.40140 19.03320 7221 ft 279 kts 208°
2026-04-20 18:59 47.38453 19.01945 7888 ft 276 kts 224°
2026-04-20 18:59 47.37249 18.99820 8545 ft 269 kts 247°
2026-04-20 18:59 47.36733 18.97225 9216 ft 262 kts 269°
2026-04-20 19:00 47.36854 18.94567 9914 ft 259 kts 281°
2026-04-20 19:00 47.37162 18.91897 10331 ft 271 kts 282°
2026-04-20 19:00 47.37486 18.89076 10555 ft 288 kts 281°
2026-04-20 19:00 47.37796 18.86074 10778 ft 304 kts 280°
2026-04-20 19:01 47.38114 18.82910 11015 ft 319 kts 280°
2026-04-20 19:01 47.38446 18.79628 11426 ft 326 kts 280°
2026-04-20 19:01 47.38661 18.77430 11773 ft 329 kts 279°
2026-04-20 19:01 47.39090 18.72925 12505 ft 334 kts 279°
2026-04-20 19:02 47.39305 18.70667 12875 ft 336 kts 279°
2026-04-20 19:02 47.39635 18.67241 13428 ft 339 kts 279°
2026-04-20 19:02 47.39968 18.63773 13966 ft 343 kts 279°
2026-04-20 19:02 47.40304 18.60284 14495 ft 344 kts 279°
2026-04-20 19:03 47.40656 18.56789 15068 ft 344 kts 279°
2026-04-20 19:03 47.41019 18.53300 15632 ft 345 kts 279°
2026-04-20 19:03 47.41374 18.49789 16190 ft 346 kts 279°
2026-04-20 19:03 47.41720 18.46269 16740 ft 346 kts 278°
2026-04-20 19:04 47.42058 18.42743 17296 ft 347 kts 278°
2026-04-20 19:04 47.42396 18.39210 17791 ft 348 kts 278°
2026-04-20 19:04 47.42731 18.35671 17995 ft 348 kts 278°
2026-04-20 19:04 47.43061 18.32130 18023 ft 348 kts 278°
2026-04-20 19:05 47.43393 18.28581 18014 ft 348 kts 278°
2026-04-20 19:05 47.43726 18.25038 18008 ft 349 kts 278°
2026-04-20 19:05 47.44059 18.21494 18000 ft 348 kts 278°
2026-04-20 19:05 47.44390 18.17948 17994 ft 348 kts 278°
2026-04-20 19:06 47.44713 18.14415 17999 ft 347 kts 278°
2026-04-20 19:06 47.45035 18.10870 18003 ft 348 kts 278°
2026-04-20 19:06 47.45362 18.07336 18005 ft 348 kts 278°
2026-04-20 19:06 47.45694 18.03795 18003 ft 348 kts 278°
2026-04-20 19:07 47.46022 18.00258 18002 ft 348 kts 278°
2026-04-20 19:07 47.46345 17.96720 18003 ft 347 kts 278°
2026-04-20 19:07 47.46659 17.93179 18000 ft 347 kts 278°
2026-04-20 19:07 47.46975 17.89636 17997 ft 347 kts 278°
2026-04-20 19:08 47.47296 17.86107 18002 ft 348 kts 278°
2026-04-20 19:08 47.47933 17.79025 18233 ft 349 kts 277°
2026-04-20 19:08 47.48248 17.75451 18650 ft 352 kts 278°
2026-04-20 19:09 47.48565 17.71854 19088 ft 353 kts 278°
2026-04-20 19:09 47.48884 17.68244 19532 ft 355 kts 278°
2026-04-20 19:09 47.49199 17.64631 19983 ft 356 kts 278°
2026-04-20 19:09 47.49514 17.60987 20427 ft 358 kts 278°
2026-04-20 19:10 47.49837 17.57333 20865 ft 359 kts 278°
2026-04-20 19:10 47.50162 17.53669 21298 ft 360 kts 278°
2026-04-20 19:10 47.50477 17.49993 21721 ft 361 kts 278°
2026-04-20 19:10 47.50800 17.46299 22145 ft 363 kts 278°
2026-04-20 19:11 47.51120 17.42583 22563 ft 364 kts 278°
2026-04-20 19:11 47.51446 17.38863 22966 ft 366 kts 278°
2026-04-20 19:11 47.51772 17.35124 23376 ft 367 kts 278°
2026-04-20 19:11 47.52095 17.31376 23757 ft 368 kts 278°
2026-04-20 19:12 47.52415 17.27613 24104 ft 368 kts 277°
2026-04-20 19:12 47.52725 17.23854 24449 ft 369 kts 278°
2026-04-20 19:12 47.53040 17.20088 24783 ft 369 kts 278°
2026-04-20 19:12 47.53360 17.16318 25116 ft 370 kts 278°
2026-04-20 19:13 47.53678 17.12535 25448 ft 370 kts 278°
2026-04-20 19:13 47.53994 17.08748 25756 ft 371 kts 278°
2026-04-20 19:13 47.54306 17.04958 26075 ft 372 kts 278°
2026-04-20 19:13 47.54618 17.01156 26380 ft 373 kts 278°
2026-04-20 19:14 47.54928 16.97340 26686 ft 373 kts 278°
2026-04-20 19:14 47.55244 16.93522 26989 ft 374 kts 278°
2026-04-20 19:14 47.55559 16.89696 27277 ft 375 kts 278°
2026-04-20 19:14 47.55872 16.85856 27565 ft 376 kts 278°
2026-04-20 19:15 47.56180 16.82005 27860 ft 377 kts 278°
2026-04-20 19:15 47.56491 16.78150 28138 ft 378 kts 278°
2026-04-20 19:15 47.56722 16.74274 28408 ft 379 kts 275°
2026-04-20 19:15 47.56781 16.70359 28677 ft 381 kts 274°
2026-04-20 19:16 47.56812 16.66438 28992 ft 380 kts 274°
2026-04-20 19:16 47.56854 16.62533 29358 ft 378 kts 274°
2026-04-20 19:16 47.56904 16.58648 29728 ft 377 kts 274°
2026-04-20 19:16 47.56957 16.54786 30091 ft 375 kts 274°
2026-04-20 19:17 47.57008 16.50938 30367 ft 374 kts 274°
2026-04-20 19:17 47.57049 16.47088 30582 ft 374 kts 274°
2026-04-20 19:17 47.57091 16.43231 30781 ft 375 kts 274°
2026-04-20 19:17 47.57142 16.39374 30976 ft 375 kts 274°
2026-04-20 19:18 47.57192 16.35512 31162 ft 376 kts 274°
2026-04-20 19:18 47.57229 16.31637 31339 ft 377 kts 274°
2026-04-20 19:18 47.57281 16.27758 31533 ft 377 kts 274°
2026-04-20 19:18 47.57323 16.23868 31725 ft 378 kts 274°
2026-04-20 19:19 47.57365 16.19972 31909 ft 379 kts 274°
2026-04-20 19:19 47.57402 16.16073 32112 ft 379 kts 274°
2026-04-20 19:19 47.57439 16.12164 32311 ft 380 kts 274°
2026-04-20 19:19 47.57475 16.08243 32524 ft 380 kts 274°
2026-04-20 19:20 47.57508 16.04328 32751 ft 380 kts 273°
2026-04-20 19:20 47.57526 16.00425 32982 ft 380 kts 273°
2026-04-20 19:20 47.57557 15.96512 33189 ft 380 kts 274°
2026-04-20 19:20 47.57584 15.92599 33369 ft 381 kts 273°
2026-04-20 19:21 47.57616 15.88676 33562 ft 381 kts 274°
2026-04-20 19:21 47.57649 15.84752 33760 ft 381 kts 273°
2026-04-20 19:21 47.57674 15.80811 33943 ft 382 kts 273°
2026-04-20 19:21 47.57700 15.76885 34058 ft 383 kts 273°
2026-04-20 19:22 47.57725 15.72994 34069 ft 384 kts 273°
2026-04-20 19:22 47.57764 15.65094 34045 ft 383 kts 273°
2026-04-20 19:23 47.57800 15.57168 34027 ft 381 kts 273°
2026-04-20 19:23 47.57838 15.49318 34043 ft 381 kts 273°
2026-04-20 19:24 47.57855 15.41517 34034 ft 380 kts 273°
2026-04-20 19:24 47.57855 15.33669 34041 ft 382 kts 273°
2026-04-20 19:25 47.57869 15.25814 34043 ft 381 kts 273°
2026-04-20 19:25 47.57886 15.17960 34039 ft 383 kts 273°
2026-04-20 19:26 47.57883 15.10057 34039 ft 383 kts 273°
2026-04-20 19:26 47.57896 15.02159 34050 ft 384 kts 273°
2026-04-20 19:27 47.57874 14.94257 34055 ft 384 kts 272°
2026-04-20 19:27 47.57831 14.86359 34052 ft 384 kts 272°
2026-04-20 19:28 47.57808 14.78456 34037 ft 384 kts 272°
2026-04-20 19:28 47.57785 14.70531 34060 ft 385 kts 272°
2026-04-20 19:29 47.57744 14.62592 34072 ft 386 kts 272°
2026-04-20 19:29 47.57708 14.54652 34065 ft 385 kts 272°
2026-04-20 19:30 47.57694 14.46722 34072 ft 385 kts 272°
2026-04-20 19:30 47.57644 14.38794 34068 ft 385 kts 272°
2026-04-20 19:31 47.57592 14.30847 34074 ft 387 kts 272°
2026-04-20 19:31 47.57548 14.22862 34087 ft 388 kts 272°
2026-04-20 19:32 47.57493 14.14889 34081 ft 388 kts 272°
2026-04-20 19:32 47.57413 14.06907 34081 ft 388 kts 272°
2026-04-20 19:33 47.57337 13.98928 34051 ft 386 kts 271°
2026-04-20 19:33 47.57265 13.90965 34064 ft 387 kts 271°
2026-04-20 19:34 47.57180 13.82988 34075 ft 388 kts 271°
2026-04-20 19:34 47.57079 13.75023 34074 ft 387 kts 271°
2026-04-20 19:35 47.56982 13.67051 34087 ft 387 kts 271°
2026-04-20 19:35 47.56885 13.59078 34078 ft 388 kts 271°
2026-04-20 19:36 47.56786 13.51086 34080 ft 388 kts 271°
2026-04-20 19:36 47.56666 13.43097 34071 ft 388 kts 271°
2026-04-20 19:37 47.56548 13.35099 34061 ft 388 kts 271°
2026-04-20 19:37 47.56432 13.27104 34069 ft 388 kts 271°
2026-04-20 19:38 47.56314 13.19191 34067 ft 389 kts 271°
2026-04-20 19:38 47.56178 13.11107 34074 ft 390 kts 271°
2026-04-20 19:39 47.56048 13.03100 34067 ft 389 kts 271°
2026-04-20 19:39 47.55899 12.95228 34065 ft 388 kts 270°
2026-04-20 19:40 47.55736 12.87102 34074 ft 389 kts 270°
2026-04-20 19:40 47.55584 12.79086 34076 ft 389 kts 270°
2026-04-20 19:41 47.55423 12.71128 34072 ft 389 kts 270°
2026-04-20 19:41 47.55249 12.63130 34069 ft 388 kts 270°
2026-04-20 19:42 47.55083 12.55121 34058 ft 390 kts 270°
2026-04-20 19:42 47.54904 12.47117 34066 ft 390 kts 270°
2026-04-20 19:43 47.54712 12.39100 34055 ft 390 kts 270°
2026-04-20 19:43 47.54519 12.31064 34069 ft 391 kts 270°
2026-04-20 19:44 47.54325 12.23000 34074 ft 392 kts 270°
2026-04-20 19:44 47.54117 12.14948 34069 ft 391 kts 270°
2026-04-20 19:45 47.53911 12.06899 34068 ft 391 kts 270°
2026-04-20 19:45 47.54022 11.98880 34060 ft 389 kts 279°
2026-04-20 19:46 47.54856 11.92344 34072 ft 389 kts 282°
2026-04-20 19:46 47.55919 11.84485 34069 ft 389 kts 282°
2026-04-20 19:47 47.56955 11.76619 34064 ft 389 kts 281°
2026-04-20 19:47 47.57985 11.68733 34070 ft 390 kts 281°
2026-04-20 19:48 47.59012 11.60831 34080 ft 391 kts 281°
2026-04-20 19:48 47.60032 11.52917 34078 ft 391 kts 281°
2026-04-20 19:49 47.61044 11.45017 34079 ft 389 kts 281°
2026-04-20 19:49 47.62054 11.37130 34064 ft 390 kts 281°
2026-04-20 19:50 47.63068 11.29197 34084 ft 392 kts 281°
2026-04-20 19:50 47.64071 11.21252 34082 ft 392 kts 281°
2026-04-20 19:51 47.65070 11.13289 34074 ft 392 kts 281°
2026-04-20 19:51 47.66060 11.05340 34080 ft 392 kts 281°
2026-04-20 19:52 47.67046 10.97382 34081 ft 392 kts 281°
2026-04-20 19:52 47.68026 10.89430 34083 ft 392 kts 281°
2026-04-20 19:53 47.68997 10.81465 34085 ft 392 kts 281°
2026-04-20 19:53 47.69966 10.73506 34083 ft 392 kts 281°
2026-04-20 19:54 47.70933 10.65526 34087 ft 392 kts 281°
2026-04-20 19:54 47.71882 10.57613 34085 ft 392 kts 281°
2026-04-20 19:55 47.72840 10.49630 34084 ft 392 kts 281°
2026-04-20 19:55 47.73786 10.41649 34086 ft 393 kts 281°
2026-04-20 19:56 47.74726 10.33664 34086 ft 392 kts 281°
2026-04-20 19:56 47.75667 10.25680 34086 ft 392 kts 281°
2026-04-20 19:57 47.76612 10.17691 34086 ft 392 kts 281°
2026-04-20 19:57 47.77544 10.09700 34080 ft 393 kts 281°
2026-04-20 19:58 47.78476 10.01698 34079 ft 392 kts 281°
2026-04-20 19:58 47.79402 9.93702 34102 ft 393 kts 281°
2026-04-20 19:59 47.80316 9.85728 34085 ft 389 kts 280°
2026-04-20 19:59 47.81219 9.77807 34081 ft 390 kts 280°
2026-04-20 20:00 47.82120 9.69830 34075 ft 390 kts 280°
2026-04-20 20:00 47.83017 9.61871 34078 ft 390 kts 280°
2026-04-20 20:01 47.83908 9.53908 34076 ft 390 kts 280°
2026-04-20 20:01 47.84792 9.45937 34079 ft 390 kts 280°
2026-04-20 20:02 47.85667 9.37968 34077 ft 390 kts 280°
2026-04-20 20:02 47.86542 9.29990 34070 ft 390 kts 280°
2026-04-20 20:03 47.87409 9.22010 34082 ft 390 kts 280°
2026-04-20 20:03 47.88273 9.14030 34084 ft 390 kts 280°
2026-04-20 20:04 47.89127 9.06098 34087 ft 390 kts 280°
2026-04-20 20:04 47.89979 8.98105 34090 ft 390 kts 280°
2026-04-20 20:05 47.90823 8.90110 34090 ft 390 kts 280°
2026-04-20 20:05 47.91665 8.82136 34089 ft 389 kts 280°
2026-04-20 20:06 47.92497 8.74188 34093 ft 389 kts 280°
2026-04-20 20:06 47.93325 8.66187 34100 ft 389 kts 280°
2026-04-20 20:07 47.94143 8.58206 34097 ft 389 kts 280°
2026-04-20 20:07 47.94960 8.50225 34099 ft 389 kts 280°
2026-04-20 20:08 47.95772 8.42238 34100 ft 390 kts 280°
2026-04-20 20:08 47.96581 8.34252 34103 ft 389 kts 280°
2026-04-20 20:09 47.97382 8.26256 34102 ft 389 kts 280°
2026-04-20 20:09 47.98174 8.18267 34106 ft 389 kts 280°
2026-04-20 20:10 47.98963 8.10273 34110 ft 389 kts 279°
2026-04-20 20:10 47.99746 8.02283 34118 ft 389 kts 279°
2026-04-20 20:11 48.00525 7.94278 34114 ft 390 kts 279°
2026-04-20 20:11 48.01297 7.86269 34107 ft 389 kts 279°
2026-04-20 20:12 48.02062 7.78268 34096 ft 390 kts 279°
2026-04-20 20:12 48.02824 7.70257 34094 ft 389 kts 279°
2026-04-20 20:13 48.03956 7.58227 34087 ft 390 kts 279°
2026-04-20 20:13 48.04700 7.50195 34090 ft 390 kts 279°
2026-04-20 20:14 48.05439 7.42155 34110 ft 390 kts 279°
2026-04-20 20:14 48.06178 7.34117 34111 ft 390 kts 279°
2026-04-20 20:15 48.06920 7.26083 34115 ft 390 kts 279°
2026-04-20 20:15 48.07647 7.18085 34098 ft 391 kts 279°
2026-04-20 20:16 48.08371 7.10018 34109 ft 391 kts 279°
2026-04-20 20:16 48.09088 7.01944 34110 ft 392 kts 279°
2026-04-20 20:17 48.09797 6.93859 34103 ft 391 kts 279°
2026-04-20 20:17 48.10505 6.85794 34103 ft 391 kts 279°
2026-04-20 20:18 48.11204 6.77712 34096 ft 393 kts 279°
2026-04-20 20:18 48.11905 6.69578 34106 ft 394 kts 279°
2026-04-20 20:19 48.12597 6.61449 34111 ft 394 kts 279°
2026-04-20 20:19 48.13282 6.53314 34109 ft 394 kts 279°
2026-04-20 20:20 48.13964 6.45172 34115 ft 394 kts 279°
2026-04-20 20:20 48.14642 6.37036 34117 ft 394 kts 279°
2026-04-20 20:21 48.15313 6.28899 34127 ft 394 kts 279°
2026-04-20 20:21 48.15980 6.20755 34131 ft 394 kts 279°
2026-04-20 20:22 48.16638 6.12616 34134 ft 394 kts 279°
2026-04-20 20:22 48.17292 6.04472 34137 ft 394 kts 279°
2026-04-20 20:23 48.17938 5.96331 34131 ft 394 kts 279°
2026-04-20 20:23 48.18582 5.88163 34134 ft 394 kts 279°
2026-04-20 20:24 48.19217 5.80001 34132 ft 394 kts 279°
2026-04-20 20:24 48.19848 5.71831 34130 ft 394 kts 279°
2026-04-20 20:25 48.20472 5.63682 34130 ft 394 kts 279°
2026-04-20 20:25 48.21093 5.55511 34101 ft 394 kts 279°
2026-04-20 20:26 48.21710 5.47315 34124 ft 396 kts 278°
2026-04-20 20:26 48.22318 5.39104 34136 ft 396 kts 278°
2026-04-20 20:27 48.22921 5.30947 34129 ft 396 kts 278°
2026-04-20 20:27 48.23518 5.22737 34131 ft 396 kts 278°
2026-04-20 20:28 48.24109 5.14533 34128 ft 396 kts 278°
2026-04-20 20:28 48.24693 5.06295 34130 ft 398 kts 278°
2026-04-20 20:29 48.25183 4.99364 34133 ft 399 kts 278°
2026-04-20 20:29 48.25860 4.89749 34130 ft 399 kts 278°
2026-04-20 20:30 48.26345 4.82821 34139 ft 398 kts 278°
2026-04-20 20:30 48.26909 4.74554 34142 ft 398 kts 278°
2026-04-20 20:31 48.27476 4.66262 34131 ft 400 kts 278°
2026-04-20 20:31 48.28359 4.58034 34138 ft 399 kts 283°
2026-04-20 20:32 48.29426 4.49851 34135 ft 399 kts 283°
2026-04-20 20:32 48.30488 4.41664 34141 ft 399 kts 283°
2026-04-20 20:33 48.31539 4.33471 34146 ft 400 kts 283°
2026-04-20 20:33 48.32589 4.25269 34134 ft 400 kts 282°
2026-04-20 20:34 48.33636 4.17039 34147 ft 401 kts 282°
2026-04-20 20:34 48.34670 4.08852 34147 ft 401 kts 282°
2026-04-20 20:35 48.35700 4.00617 34148 ft 401 kts 282°
2026-04-20 20:35 48.36729 3.92364 34151 ft 401 kts 282°
2026-04-20 20:36 48.37744 3.84122 34171 ft 398 kts 282°
2026-04-20 20:36 48.38749 3.75968 34154 ft 397 kts 282°
2026-04-20 20:37 48.39747 3.67800 34154 ft 397 kts 282°
2026-04-20 20:37 48.40740 3.59634 34153 ft 397 kts 282°
2026-04-20 20:38 48.41730 3.51463 34154 ft 397 kts 282°
2026-04-20 20:38 48.42713 3.43289 34146 ft 397 kts 282°
2026-04-20 20:39 48.43691 3.35078 34149 ft 398 kts 282°
2026-04-20 20:39 48.44664 3.26869 34154 ft 398 kts 282°
2026-04-20 20:40 48.45632 3.18651 34160 ft 398 kts 282°
2026-04-20 20:40 48.46592 3.10432 34165 ft 398 kts 282°
2026-04-20 20:41 48.47551 3.02209 34159 ft 399 kts 282°
2026-04-20 20:41 48.48506 2.93958 34156 ft 400 kts 281°
2026-04-20 20:42 48.49449 2.85741 34162 ft 401 kts 281°
2026-04-20 20:42 48.50395 2.77400 34162 ft 401 kts 281°
2026-04-20 20:43 48.51326 2.69179 34163 ft 401 kts 281°
2026-04-20 20:43 48.52258 2.60900 34170 ft 400 kts 281°
2026-04-20 20:44 48.53188 2.52596 34166 ft 403 kts 281°
2026-04-20 20:44 48.54112 2.44266 34170 ft 403 kts 281°
2026-04-20 20:45 48.55030 2.35937 34169 ft 402 kts 281°
2026-04-20 20:45 48.55941 2.27624 34169 ft 402 kts 281°
2026-04-20 20:46 48.56844 2.19297 34172 ft 402 kts 281°
2026-04-20 20:46 48.57717 2.10952 34165 ft 403 kts 280°
2026-04-20 20:47 48.58581 2.02568 34172 ft 404 kts 280°
2026-04-20 20:47 48.59436 1.94196 34172 ft 404 kts 280°
2026-04-20 20:48 48.60288 1.85807 34171 ft 404 kts 280°
2026-04-20 20:48 48.61135 1.77423 34171 ft 404 kts 280°
2026-04-20 20:49 48.61974 1.69034 34161 ft 403 kts 280°
2026-04-20 20:49 48.62804 1.60664 34160 ft 402 kts 280°
2026-04-20 20:50 48.63626 1.52358 34166 ft 403 kts 280°
2026-04-20 20:50 48.64450 1.43981 34183 ft 403 kts 280°
2026-04-20 20:51 48.65263 1.35599 34174 ft 403 kts 279°
2026-04-20 20:51 48.66069 1.27215 34164 ft 403 kts 279°
2026-04-20 20:52 48.66875 1.18745 34169 ft 404 kts 279°
2026-04-20 20:52 48.67668 1.10392 34183 ft 404 kts 279°
2026-04-20 20:53 48.68466 1.01972 34172 ft 404 kts 279°
2026-04-20 20:53 48.69253 0.93544 34180 ft 404 kts 279°
2026-04-20 20:54 48.70031 0.85122 34170 ft 404 kts 279°
2026-04-20 20:54 48.70805 0.76739 34176 ft 402 kts 279°
2026-04-20 20:55 48.71568 0.68349 34187 ft 402 kts 279°
2026-04-20 20:55 48.72324 0.59966 34178 ft 402 kts 279°
2026-04-20 20:56 48.73079 0.51574 34186 ft 402 kts 279°
2026-04-20 20:56 48.73827 0.43184 34169 ft 402 kts 279°
2026-04-20 20:57 48.74565 0.34781 34188 ft 397 kts 279°
2026-04-20 20:57 48.75285 0.26535 34192 ft 398 kts 279°
2026-04-20 20:58 48.76001 0.18212 34189 ft 398 kts 279°
2026-04-20 20:58 48.76718 0.09897 34194 ft 398 kts 279°
2026-04-20 20:59 48.77429 0.01571 34196 ft 398 kts 279°
2026-04-20 20:59 48.78126 -0.06725 34192 ft 395 kts 279°
2026-04-20 21:00 48.78815 -0.14969 34200 ft 394 kts 278°
2026-04-20 21:00 48.79501 -0.23209 34198 ft 394 kts 278°
2026-04-20 21:01 48.80181 -0.31457 34202 ft 394 kts 278°
2026-04-20 21:01 48.80850 -0.39697 34204 ft 394 kts 278°
2026-04-20 21:02 48.81516 -0.47949 34200 ft 394 kts 278°
2026-04-20 21:02 48.82176 -0.56197 34203 ft 394 kts 278°
2026-04-20 21:03 48.82829 -0.64451 34205 ft 394 kts 278°
2026-04-20 21:03 48.83478 -0.72692 34201 ft 394 kts 278°
2026-04-20 21:04 48.84121 -0.80952 34201 ft 394 kts 278°
2026-04-20 21:04 48.84757 -0.89204 34189 ft 394 kts 278°
2026-04-20 21:05 48.85386 -0.97477 34200 ft 395 kts 278°
2026-04-20 21:05 48.86013 -1.05755 34201 ft 395 kts 278°
2026-04-20 21:06 48.86632 -1.14039 34201 ft 395 kts 278°
2026-04-20 21:06 48.87245 -1.22319 34200 ft 395 kts 278°
2026-04-20 21:07 48.87854 -1.30606 34202 ft 395 kts 278°
2026-04-20 21:07 48.88455 -1.38915 34195 ft 397 kts 277°
2026-04-20 21:08 48.89050 -1.47257 34200 ft 397 kts 277°
2026-04-20 21:08 48.89639 -1.55594 34200 ft 397 kts 277°
2026-04-20 21:09 48.90222 -1.63888 34206 ft 397 kts 277°
2026-04-20 21:09 48.90780 -1.72233 34205 ft 397 kts 275°
2026-04-20 21:10 48.90188 -1.80676 34202 ft 405 kts 259°
2026-04-20 21:10 48.88821 -1.88937 34197 ft 406 kts 259°
2026-04-20 21:11 48.88124 -1.93144 34009 ft 404 kts 259°
2026-04-20 21:11 48.87457 -1.97218 33679 ft 402 kts 259°
2026-04-20 21:11 48.86784 -2.01338 33393 ft 401 kts 259°
2026-04-20 21:11 48.86114 -2.05438 33121 ft 400 kts 259°
2026-04-20 21:12 48.85445 -2.09522 32867 ft 397 kts 259°
2026-04-20 21:12 48.84779 -2.13585 32592 ft 395 kts 259°
2026-04-20 21:12 48.84106 -2.17671 32321 ft 393 kts 259°
2026-04-20 21:12 48.83455 -2.21632 32054 ft 391 kts 259°
2026-04-20 21:13 48.82800 -2.25617 31799 ft 388 kts 259°
2026-04-20 21:13 48.82147 -2.29576 31545 ft 386 kts 259°
2026-04-20 21:13 48.81496 -2.33507 31289 ft 383 kts 259°
2026-04-20 21:13 48.80846 -2.37414 31048 ft 381 kts 259°
2026-04-20 21:14 48.80200 -2.41298 30799 ft 378 kts 259°
2026-04-20 21:14 48.79556 -2.45152 30550 ft 376 kts 259°
2026-04-20 21:14 48.78915 -2.48979 30307 ft 374 kts 259°
2026-04-20 21:14 48.78481 -2.51561 30124 ft 372 kts 259°
2026-04-20 21:15 48.77844 -2.55347 29836 ft 370 kts 259°
2026-04-20 21:15 48.77208 -2.59124 29555 ft 369 kts 259°
2026-04-20 21:15 48.76583 -2.62830 29264 ft 366 kts 259°
2026-04-20 21:15 48.75946 -2.66593 28889 ft 362 kts 259°
2026-04-20 21:16 48.75324 -2.70262 28431 ft 358 kts 259°
2026-04-20 21:16 48.74705 -2.73907 27919 ft 355 kts 259°
2026-04-20 21:16 48.74091 -2.77518 27418 ft 353 kts 259°
2026-04-20 21:16 48.73480 -2.81104 26898 ft 351 kts 259°
2026-04-20 21:17 48.72869 -2.84677 26391 ft 349 kts 259°
2026-04-20 21:17 48.72263 -2.88218 25914 ft 346 kts 259°
2026-04-20 21:17 48.71658 -2.91736 25440 ft 344 kts 259°
2026-04-20 21:17 48.71058 -2.95229 24953 ft 342 kts 259°
2026-04-20 21:18 48.70464 -2.98664 24478 ft 341 kts 259°
2026-04-20 21:18 48.69852 -3.02172 23984 ft 340 kts 259°
2026-04-20 21:18 48.69259 -3.05634 23447 ft 339 kts 259°
2026-04-20 21:18 48.68716 -3.09038 22935 ft 336 kts 259°
2026-04-20 21:19 48.68172 -3.12464 22451 ft 333 kts 259°
2026-04-20 21:19 48.67633 -3.15865 21955 ft 332 kts 259°
2026-04-20 21:19 48.67095 -3.19243 21469 ft 330 kts 259°
2026-04-20 21:20 48.66022 -3.25952 20556 ft 326 kts 259°
2026-04-20 21:20 48.65488 -3.29276 20109 ft 325 kts 259°
2026-04-20 21:20 48.64958 -3.32587 19641 ft 324 kts 259°
2026-04-20 21:20 48.64424 -3.35902 19191 ft 324 kts 259°
2026-04-20 21:21 48.63893 -3.39202 18722 ft 323 kts 258°
2026-04-20 21:21 48.63358 -3.42506 18245 ft 323 kts 258°
2026-04-20 21:21 48.62827 -3.45791 17762 ft 321 kts 258°
2026-04-20 21:21 48.62296 -3.49063 17275 ft 319 kts 258°
2026-04-20 21:22 48.61766 -3.52310 16816 ft 318 kts 258°
2026-04-20 21:22 48.61287 -3.55556 16347 ft 315 kts 263°
2026-04-20 21:22 48.60989 -3.58822 15905 ft 312 kts 264°
2026-04-20 21:22 48.60723 -3.62064 15480 ft 309 kts 265°
2026-04-20 21:23 48.60459 -3.65276 15061 ft 307 kts 265°
2026-04-20 21:23 48.60194 -3.68463 14625 ft 305 kts 264°
2026-04-20 21:23 48.59926 -3.71628 14185 ft 304 kts 265°
2026-04-20 21:23 48.59659 -3.74787 13734 ft 302 kts 265°
2026-04-20 21:24 48.59393 -3.77923 13281 ft 300 kts 264°
2026-04-20 21:24 48.59128 -3.81028 12860 ft 297 kts 264°
2026-04-20 21:24 48.58863 -3.84108 12440 ft 295 kts 264°
2026-04-20 21:24 48.58600 -3.87169 12001 ft 294 kts 264°
2026-04-20 21:25 48.58335 -3.90224 11572 ft 292 kts 264°
2026-04-20 21:25 48.58070 -3.93258 11167 ft 291 kts 263°
2026-04-20 21:25 48.57805 -3.96282 10820 ft 287 kts 263°
2026-04-20 21:25 48.57546 -3.99228 10583 ft 280 kts 263°
2026-04-20 21:26 48.57298 -4.02060 10353 ft 274 kts 263°
2026-04-20 21:26 48.57051 -4.04884 10070 ft 270 kts 263°
2026-04-20 21:26 48.56804 -4.07695 9689 ft 270 kts 263°
2026-04-20 21:26 48.56557 -4.10504 9300 ft 270 kts 262°
2026-04-20 21:27 48.56307 -4.13309 8917 ft 269 kts 262°
2026-04-20 21:27 48.56061 -4.16111 8547 ft 269 kts 262°
2026-04-20 21:27 48.55811 -4.18903 8186 ft 269 kts 262°
2026-04-20 21:27 48.55560 -4.21695 7851 ft 268 kts 262°
2026-04-20 21:28 48.55311 -4.24475 7494 ft 267 kts 262°
2026-04-20 21:28 48.55058 -4.27258 7139 ft 267 kts 262°
2026-04-20 21:28 48.54807 -4.30034 6783 ft 268 kts 261°
2026-04-20 21:28 48.54557 -4.32821 6417 ft 269 kts 261°
2026-04-20 21:29 48.54307 -4.35619 6041 ft 269 kts 261°
2026-04-20 21:29 48.54051 -4.38427 5659 ft 270 kts 261°
2026-04-20 21:29 48.53796 -4.41229 5340 ft 268 kts 262°
2026-04-20 21:29 48.53549 -4.43962 5158 ft 258 kts 262°
2026-04-20 21:30 48.53307 -4.46586 5009 ft 247 kts 261°
2026-04-20 21:30 48.53076 -4.49075 4962 ft 231 kts 261°
2026-04-20 21:30 48.52868 -4.51364 4978 ft 206 kts 261°
2026-04-20 21:30 48.52666 -4.53379 4997 ft 183 kts 257°
2026-04-20 21:31 48.52311 -4.55180 4869 ft 177 kts 248°
2026-04-20 21:31 48.51897 -4.56926 4498 ft 178 kts 248°
2026-04-20 21:31 48.51477 -4.58732 4022 ft 186 kts 249°
2026-04-20 21:31 48.51055 -4.60593 3631 ft 190 kts 248°
2026-04-20 21:32 48.50624 -4.62484 3304 ft 190 kts 248°
2026-04-20 21:32 48.50203 -4.64364 3114 ft 191 kts 248°
2026-04-20 21:32 48.49775 -4.66248 3072 ft 189 kts 248°
2026-04-20 21:32 48.49351 -4.68122 3109 ft 189 kts 248°
2026-04-20 21:33 48.48885 -4.69989 3103 ft 190 kts 240°
2026-04-20 21:33 48.47992 -4.71314 3100 ft 177 kts 194°
2026-04-20 21:33 48.46810 -4.71341 3103 ft 170 kts 166°
2026-04-20 21:33 48.45632 -4.71170 3105 ft 171 kts 172°
2026-04-20 21:34 48.44444 -4.71102 3084 ft 169 kts 173°
2026-04-20 21:34 48.43263 -4.71059 3113 ft 170 kts 173°
2026-04-20 21:34 48.42083 -4.71019 3080 ft 170 kts 172°
2026-04-20 21:34 48.40976 -4.70673 2988 ft 159 kts 143°
2026-04-20 21:35 48.40406 -4.69427 2952 ft 135 kts 106°
2026-04-20 21:35 48.40267 -4.67998 3090 ft 140 kts 97°
2026-04-20 21:35 48.40132 -4.66491 3241 ft 149 kts 99°
2026-04-20 21:35 48.39970 -4.64935 3303 ft 152 kts 100°
2026-04-20 21:36 48.39870 -4.63376 3162 ft 151 kts 88°
2026-04-20 21:36 48.40187 -4.61846 2910 ft 151 kts 72°
2026-04-20 21:36 48.40530 -4.60388 2620 ft 149 kts 75°
2026-04-20 21:36 48.40863 -4.58920 2354 ft 148 kts 75°
2026-04-20 21:37 48.41190 -4.57484 2092 ft 142 kts 75°
2026-04-20 21:37 48.41509 -4.56086 1983 ft 140 kts 76°
2026-04-20 21:37 48.41812 -4.54730 1903 ft 135 kts 76°
2026-04-20 21:37 48.42118 -4.53401 1713 ft 134 kts 75°
2026-04-20 21:38 48.42419 -4.52079 1499 ft 133 kts 75°
2026-04-20 21:38 48.42722 -4.50766 1319 ft 132 kts 74°
2026-04-20 21:38 48.43005 -4.49453 1112 ft 132 kts 74°
2026-04-20 21:38 48.43328 -4.48164 996 ft 132 kts 70°
2026-04-20 21:39 48.43655 -4.46882 787 ft 130 kts 70°
2026-04-20 21:39 48.43944 -4.45588 634 ft 130 kts 71°
2026-04-20 21:39 48.44234 -4.44302 410 ft 129 kts 71°
2026-04-20 21:39 48.44511 -4.43048 319 ft 118 kts 71°
2026-04-20 21:40 48.44734 -4.42067 327 ft 75 kts 70°
2026-04-20 21:40 48.44849 -4.41570 337 ft 26 kts 71°
2026-04-20 21:40 48.44875 -4.41453 335 ft 11 kts 71°
2026-04-20 21:40 48.44908 -4.41306 335 ft 17 kts 71°
2026-04-20 21:41 48.44951 -4.41113 333 ft 22 kts 71°
2026-04-20 21:41 48.45005 -4.40875 326 ft 26 kts 69°
2026-04-20 21:41 48.45061 -4.40724 330 ft 12 kts 62°
2026-04-20 21:41 48.45033 -4.40737 329 ft 10 kts 269°
2026-04-20 21:42 48.45012 -4.40870 326 ft 16 kts 250°
2026-04-20 21:42 48.44962 -4.41074 330 ft 25 kts 250°
2026-04-20 21:42 48.44896 -4.41344 339 ft 30 kts 250°
2026-04-20 21:42 48.44827 -4.41668 337 ft 35 kts 253°
2026-04-20 21:43 48.44749 -4.42016 330 ft 26 kts 248°
2026-04-20 21:43 48.44721 -4.42124 327 ft 11 kts 236°
2026-04-20 21:43 48.44633 -4.42136 326 ft 17 kts 160°
2026-04-20 21:43 48.44568 -4.42102 326 ft 0 kts 162°
2026-04-20 21:44 48.44542 -4.42089 328 ft 8 kts 162°
2026-04-20 21:45 48.44520 -4.42026 327 ft 2 kts 89°
2026-04-20 21:45 48.44508 -4.42003 327 ft 4 kts 141°
2026-04-20 21:45 48.44485 -4.41982 326 ft 4 kts 167°
2026-04-20 21:45 48.44469 -4.41984 327 ft 2 kts 194°
2026-04-20 21:46 48.44458 -4.41989 326 ft 2 kts 198°
2026-04-20 21:46 48.44448 -4.41995 327 ft 1 kts 200°
2026-04-20 21:46 48.44443 -4.41998 328 ft 0 kts 200°